645  
ASUS41 KPHI 310810  
RWRPHI  
 
REGIONAL WEATHER ROUNDUP  
NATIONAL WEATHER SERVICE MOUNT HOLLY NJ  
400 AM EDT FRI OCT 31 2014  
 
NOTE: "FAIR" INDICATES FEW OR NO CLOUDS BELOW 12,000 FEET WITH NO  
SIGNIFICANT WEATHER AND/OR S TO VISIBILITY
.  
 
* = STATION DOES NOT REPORT PRECIPITATION (E.G. RAIN, SNOW, ETC.)  
OR FOG.
 
 
NJZ015>026-310900-  
SOUTHERN NEW JERSEY  
 
CITY SKY/WX TMP DP RH WIND PRES REMARKS
 
POMONA CLEAR 38 33 82 CALM 30.00F  
RIO GRANDE* CLEAR 41 30 65 N5 30.01S  
MILLVILLE CLEAR 36 33 89 CALM 30.00F  
WRIGHTSTOWN CLEAR 38 33 81 NW2 29.98F  
MOUNT HOLLY CLEAR 34 31 88 CALM 30.01F  
TRENTON CLEAR 36 32 85 NW7 30.00F WCI 30  
 

 
NJZ001>014-310900-  
NORTHERN NEW JERSEY  
 
CITY SKY/WX TMP DP RH WIND PRES REMARKS
 
SUSSEX CLEAR 31 27 85 CALM 30.02F  
ANDOVER* N/A 31 30 96 CALM 30.02S  
MORRISTOWN CLEAR 32 30 93 CALM 30.02F  
NEWARK PTCLDY 42 36 79 N8 30.01F  
TETERBORO CLEAR 40 34 79 CALM 30.01F  
CALDWELL CLEAR 35 31 85 CALM 30.03S  
SOMERVILLE CLEAR 31 28 89 NW3 30.00F  
ALLAIRE* CLEAR 37 28 70 NW6 29.99F WCI 33  
TOMS RIVER* CLEAR 30 27 86 CALM 30.00F  
 

 
PAZ043-044-047-054-055-060>062-066>071-310900-  
EASTERN PENNSYLVANIA  
 
CITY SKY/WX TMP DP RH WIND PRES REMARKS
 
PHILADELPHIA CLEAR 42 33 70 N5 30.02F  
NORTH PHILA CLEAR 38 31 76 CALM 30.03F  
BLUE BELL CLEAR 34 32 93 CALM 30.01S  
DOYLESTOWN CLEAR 33 31 92 CALM 30.01F  
QUAKERTOWN* CLEAR 30 28 93 CALM 30.02F  
POTTSTOWN CLEAR 32 30 92 CALM 30.03F  
LANCASTER CLOUDY 44 39 82 CALM 30.01F  
COATESVILLE PTCLDY 41 34 75 N3 30.01F  
READING CLOUDY 37 33 85 N3 30.02S  
ALLENTOWN CLEAR 32 29 88 CALM 30.03S  
MOUNT POCONO CLEAR 28 26 92 NW5 29.98F WCI 23  
WILKES BARRE CLEAR 34 29 82 SE3 30.01F  
 

 
DEZALL-MDZ008-012-015-019-020-310900-  
DELAWARE AND EASTERN MARYLAND  
 
CITY SKY/WX TMP DP RH WIND PRES REMARKS
 
WILMINGTON PTCLDY 39 37 92 N5 30.02F  
DOVER CLEAR 41 38 90 N5 29.98F  
GEORGETOWN CLEAR 41 37 86 CALM 30.00F  
EASTON MOCLDY 43 40 91 CALM 30.04S  
PATUXENT CLEAR 49 40 71 NE8 30.00S  
OCEAN CITY CLEAR 42 39 89 N6 29.98F  
WALLOPS ISLAND CLEAR 45 39 79 N7 29.98F  
CAMBRIDGE CLEAR 43 36 75 CALM 30.00S  
SALISBURY CLEAR 46 37 71 CALM 29.99F  
 

 
PAZ001-021-NYZ056-072-MDZ011-DCZ001-310900-  
OTHER NEARBY LOCATIONS  
 
CITY SKY/WX TMP DP RH WIND PRES REMARKS
 
HARRISBURG CLOUDY 47 37 68 E3 30.01F  
STATE COLLEGE CLOUDY 40 37 91 CALM 30.00S  
WILLIAMSPORT CLOUDY 35 31 85 CALM 30.03S  
BINGHAMTON CLEAR 31 29 92 S3 29.99S  
NEW YORK CITY MOCLDY 46 34 62 NE5 30.03F  
BALTIMORE MOCLDY 48 40 73 NE5 30.01F  
WASHINGTON DC PTCLDY 48 36 63 N3 30.02F  
 

 
 
CLICK HERE TO GO TO PREVIOUS BULLETINS.

The Nexlab PA Page
The Nexlab NJ Page
The Nexlab DE Page
The Nexlab MD Page Main Text Page